Record,Date/Time,10,Tamb(K),Rh(%),Pres(mb),Rain,Az(deg),El(deg),TkBB(K), 22.235, 23.035, 23.835, 26.235, 30.000,
     1,10/07/05 13:55:13,11,291.17, 75.41,1016.8,N,  0.00, 90.00,296.81, 68.80, 65.45, 54.03, 33.26, 21.01,
     2,10/07/05 13:56:14,11,291.21, 75.54,1016.7,N,  0.00, 90.00,296.83, 68.88, 65.91, 54.11, 33.09, 23.02,
     3,10/07/05 13:57:14,11,291.15, 75.37,1016.9,N,  0.00, 90.00,296.82, 69.89, 65.95, 54.82, 33.93, 24.33,
     4,10/07/05 13:58:14,11,291.04, 76.40,1016.9,N,  0.00, 90.00,296.84, 68.97, 65.50, 53.56, 32.89, 22.48,
     5,10/07/05 13:59:14,11,291.19, 76.03,1017.0,N,  0.00, 90.00,296.82, 70.21, 66.41, 55.14, 33.85, 24.05,
     6,10/07/05 14:00:14,11,291.08, 75.76,1016.9,N,  0.00, 90.00,296.85, 70.49, 67.61, 55.66, 35.33, 25.46,
     7,10/07/05 14:01:14,11,291.01, 75.62,1017.3,N,  0.00, 90.00,296.82, 69.90, 66.57, 55.25, 34.26, 23.96,
     8,10/07/05 14:02:14,11,291.15, 74.76,1016.8,N,  0.00, 90.00,296.82, 70.76, 67.00, 55.77, 34.61, 24.99,
     9,10/07/05 14:03:14,11,291.12, 75.96,1016.9,N,  0.00, 90.00,296.84, 69.36, 66.00, 54.60, 33.63, 24.21,
    10,10/07/05 14:04:14,11,291.19, 75.47,1016.9,N,  0.00, 90.00,296.83, 70.14, 66.00, 54.14, 33.79, 24.22,
    11,10/07/05 14:05:14,11,291.23, 74.09,1016.7,N,  0.00, 90.00,296.83, 69.11, 65.31, 54.02, 33.10, 22.45,
    12,10/07/05 14:06:14,11,291.23, 73.37,1016.6,N,  0.00, 90.00,296.82, 68.86, 65.26, 54.00, 33.14, 23.58,
    13,10/07/05 14:07:14,11,291.52, 72.90,1017.1,N,  0.00, 90.00,296.83, 68.44, 65.39, 53.53, 32.68, 22.95,
    14,10/07/05 14:08:14,11,291.49, 72.31,1017.1,N,  0.00, 90.00,296.83, 68.62, 65.22, 53.02, 32.82, 21.54,
    15,10/07/05 14:09:14,11,291.14, 73.66,1016.8,N,  0.00, 90.00,296.82, 68.49, 64.61, 52.92, 32.24, 21.45,
    16,10/07/05 14:10:14,11,291.33, 72.65,1016.8,N,  0.00, 90.00,296.83, 68.49, 64.54, 53.13, 32.19, 21.65,
    17,10/07/05 14:11:14,11,291.40, 72.92,1016.8,N,  0.00, 90.00,296.84, 68.25, 64.15, 53.20, 31.85, 21.55,
    18,10/07/05 14:12:14,11,291.37, 72.35,1017.2,N,  0.00, 90.00,296.85, 68.03, 64.62, 52.99, 31.71, 21.17,
    19,10/07/05 14:13:14,11,291.35, 73.25,1017.4,N,  0.00, 90.00,296.84, 68.24, 64.98, 52.90, 32.22, 21.26,
    20,10/07/05 14:14:14,11,291.44, 72.15,1017.2,N,  0.00, 90.00,296.87, 68.44, 64.50, 53.01, 32.05, 22.41,
    21,10/07/05 14:15:14,11,291.41, 72.83,1017.4,N,  0.00, 90.00,296.88, 68.53, 64.47, 52.54, 31.61, 21.41,
    22,10/07/05 14:16:14,11,291.27, 73.32,1016.7,N,  0.00, 90.00,296.90, 67.73, 64.72, 52.82, 32.19, 22.06,
    23,10/07/05 14:17:14,11,291.40, 72.15,1016.9,N,  0.00, 90.00,296.91, 68.09, 64.16, 52.47, 31.80, 21.59,
    24,10/07/05 14:18:14,11,291.34, 72.34,1017.1,N,  0.00, 90.00,296.92, 68.09, 64.35, 53.07, 32.02, 21.47,
    25,10/07/05 14:19:14,11,291.45, 72.72,1016.9,N,  0.00, 90.00,296.93, 67.27, 63.95, 52.80, 31.34, 20.96,
    26,10/07/05 14:20:14,11,291.48, 72.30,1017.1,N,  0.00, 90.00,296.94, 67.78, 64.25, 52.67, 32.21, 21.28,
    27,10/07/05 14:21:14,11,291.41, 72.41,1017.1,N,  0.00, 90.00,296.97, 67.10, 63.52, 52.59, 31.71, 21.38,
    28,10/07/05 14:22:14,11,291.36, 71.53,1017.1,N,  0.00, 90.00,296.97, 67.75, 64.02, 52.84, 31.93, 21.29,
    29,10/07/05 14:23:14,11,291.52, 72.33,1017.3,N,  0.00, 90.00,297.00, 67.84, 64.64, 52.75, 31.56, 22.09,
    30,10/07/05 14:24:14,11,291.40, 73.18,1016.7,N,  0.00, 90.00,297.01, 68.22, 64.31, 53.19, 31.95, 21.27,
    31,10/07/05 14:25:14,11,291.52, 72.54,1017.1,N,  0.00, 90.00,297.01, 68.20, 64.06, 52.90, 32.10, 21.46,
    32,10/07/05 14:26:14,11,291.52, 71.80,1017.1,N,  0.00, 90.00,297.04, 68.13, 64.57, 53.42, 32.39, 22.40,
    33,10/07/05 14:27:14,11,291.53, 73.20,1016.9,N,  0.00, 90.00,297.05, 67.76, 64.70, 53.14, 32.29, 22.00,
    34,10/07/05 14:28:14,11,291.41, 72.65,1016.9,N,  0.00, 90.00,297.06, 67.42, 64.50, 52.88, 32.24, 21.96,
    35,10/07/05 14:29:14,11,291.48, 71.98,1017.4,N,  0.00, 90.00,297.08, 68.07, 64.84, 53.49, 32.84, 22.52,
    36,10/07/05 14:30:14,11,291.41, 72.16,1017.2,N,  0.00, 90.00,297.09, 68.72, 64.57, 53.32, 32.49, 22.96,
    37,10/07/05 14:31:14,11,291.40, 70.94,1017.2,N,  0.00, 90.00,297.11, 68.39, 64.70, 53.18, 32.65, 22.48,
    38,10/07/05 14:32:14,11,291.42, 72.62,1017.1,N,  0.00, 90.00,297.13, 68.64, 65.05, 54.18, 33.42, 24.40,
    39,10/07/05 14:33:14,11,291.47, 72.88,1017.2,N,  0.00, 90.00,297.13, 68.11, 64.69, 53.12, 32.80, 23.62,
    40,10/07/05 14:34:14,11,291.37, 73.40,1017.2,N,  0.00, 90.00,297.15, 67.95, 64.36, 53.32, 33.06, 22.25,
    41,10/07/05 14:35:14,11,291.45, 73.34,1016.9,N,  0.00, 90.00,297.14, 68.26, 64.75, 53.57, 33.15, 22.50,
    42,10/07/05 14:36:14,11,291.44, 71.84,1016.9,N,  0.00, 90.00,297.15, 67.55, 63.45, 52.64, 32.39, 22.91,
    43,10/07/05 14:37:14,11,291.43, 71.63,1016.7,N,  0.00, 90.00,297.17, 67.88, 64.35, 52.72, 32.30, 23.49,
    44,10/07/05 14:38:14,11,291.35, 71.47,1017.6,N,  0.00, 90.00,297.18, 67.95, 64.42, 53.00, 32.86, 23.31,
    45,10/07/05 14:39:14,11,291.40, 73.17,1016.8,N,  0.00, 90.00,297.17, 67.79, 64.40, 54.02, 33.01, 23.43,
    46,10/07/05 14:40:14,11,291.32, 71.57,1017.3,N,  0.00, 90.00,297.18, 68.09, 64.76, 53.43, 32.95, 23.70,
    47,10/07/05 14:41:14,11,291.35, 71.80,1017.5,N,  0.00, 90.00,297.18, 68.45, 65.11, 53.65, 32.99, 23.09,
    48,10/07/05 14:42:14,11,291.41, 73.60,1017.3,N,  0.00, 90.00,297.18, 67.76, 64.63, 52.89, 32.20, 22.58,
    49,10/07/05 14:43:14,11,291.48, 72.82,1017.2,N,  0.00, 90.00,297.17, 67.20, 64.17, 52.60, 32.31, 21.86,
    50,10/07/05 14:44:14,11,291.38, 73.67,1017.5,N,  0.00, 90.00,297.18, 67.27, 63.82, 52.30, 31.62, 22.68,
    51,10/07/05 14:45:14,11,291.54, 72.47,1017.3,N,  0.00, 90.00,297.19, 67.27, 64.35, 52.46, 31.81, 21.52,
    52,10/07/05 14:46:14,11,291.48, 72.35,1017.3,N,  0.00, 90.00,297.18, 67.11, 63.49, 52.07, 32.05, 22.04,
    53,10/07/05 14:47:14,11,291.51, 73.49,1017.3,N,  0.00, 90.00,297.20, 67.32, 63.76, 52.67, 32.40, 22.82,
    54,10/07/05 14:48:14,11,291.54, 73.59,1017.4,N,  0.00, 90.00,297.19, 67.90, 63.82, 53.01, 32.40, 22.06,
    55,10/07/05 14:49:14,11,291.45, 74.37,1016.9,N,  0.00, 90.00,297.20, 67.56, 64.26, 52.85, 32.37, 22.87,
    56,10/07/05 14:50:14,11,291.34, 73.66,1016.8,N,  0.00, 90.00,297.20, 67.07, 63.93, 52.45, 31.95, 21.11,
    57,10/07/05 14:51:14,11,291.36, 73.32,1017.5,N,  0.00, 90.00,297.21, 67.21, 63.46, 52.06, 31.93, 21.66,
    58,10/07/05 14:52:14,11,291.41, 72.72,1016.9,N,  0.00, 90.00,297.21, 67.43, 64.02, 52.07, 32.29, 22.66,
    59,10/07/05 14:53:14,11,291.53, 73.64,1017.3,N,  0.00, 90.00,297.21, 66.93, 63.46, 52.14, 32.10, 21.72,
    60,10/07/05 14:54:14,11,291.54, 74.48,1016.9,N,  0.00, 90.00,297.21, 67.05, 62.78, 51.19, 31.28, 20.71,
    61,10/07/05 14:55:14,11,291.45, 73.69,1017.5,N,  0.00, 90.00,297.23, 66.41, 63.14, 52.04, 31.58, 21.01,
    62,10/07/05 14:56:14,11,291.45, 72.12,1017.0,N,  0.00, 90.00,297.22, 66.47, 63.05, 51.73, 31.59, 21.34,
    63,10/07/05 14:57:14,11,291.45, 73.45,1017.6,N,  0.00, 90.00,297.24, 66.72, 63.92, 51.98, 32.45, 22.46,
    64,10/07/05 14:58:14,11,291.51, 74.25,1016.8,N,  0.00, 90.00,297.24, 66.02, 62.83, 51.35, 31.28, 21.59,
    65,10/07/05 14:59:14,11,291.48, 72.64,1017.1,N,  0.00, 90.00,297.27, 65.69, 62.28, 51.40, 30.92, 21.13,
    66,10/07/05 15:00:14,11,291.51, 72.12,1017.0,N,  0.00, 90.00,297.26, 65.30, 61.78, 50.55, 30.52, 20.65,
    67,10/07/05 15:01:14,11,291.55, 71.96,1017.5,N,  0.00, 90.00,297.29, 65.43, 61.64, 51.26, 30.60, 20.82,
    68,10/07/05 15:02:14,11,291.49, 73.27,1017.6,N,  0.00, 90.00,297.29, 65.55, 62.36, 50.93, 30.55, 20.49,
    69,10/07/05 15:03:14,11,291.56, 71.67,1017.4,N,  0.00, 90.00,297.29, 65.58, 62.19, 51.00, 30.71, 21.54,
    70,10/07/05 15:04:14,11,291.48, 72.38,1017.4,N,  0.00, 90.00,297.32, 65.77, 62.06, 51.09, 31.00, 21.64,
    71,10/07/05 15:05:14,11,291.51, 74.13,1017.2,N,  0.00, 90.00,297.32, 65.80, 61.92, 50.86, 31.13, 21.20,
    72,10/07/05 15:06:14,11,291.35, 73.89,1017.4,N,  0.00, 90.00,297.34, 66.16, 62.57, 51.54, 31.90, 21.27,
    73,10/07/05 15:07:14,11,291.39, 73.32,1017.3,N,  0.00, 90.00,297.35, 65.93, 62.64, 51.77, 31.68, 23.01,
    74,10/07/05 15:08:14,11,291.44, 72.76,1017.4,N,  0.00, 90.00,297.36, 65.94, 62.17, 51.46, 31.53, 22.76,
    75,10/07/05 15:09:14,11,291.44, 71.97,1017.5,N,  0.00, 90.00,297.37, 65.96, 62.86, 51.36, 32.19, 21.87,
    76,10/07/05 15:10:14,11,291.35, 71.22,1017.0,N,  0.00, 90.00,297.37, 65.75, 62.62, 51.18, 31.53, 21.48,
    77,10/07/05 15:11:14,11,291.54, 71.83,1017.1,N,  0.00, 90.00,297.39, 65.59, 62.26, 51.32, 31.24, 22.13,
    78,10/07/05 15:12:14,11,291.42, 70.78,1017.3,N,  0.00, 90.00,297.37, 65.63, 62.36, 51.55, 31.76, 22.71,
    79,10/07/05 15:13:14,11,291.45, 71.78,1017.1,N,  0.00, 90.00,297.39, 65.54, 62.02, 51.41, 31.65, 22.76,
    80,10/07/05 15:14:14,11,291.47, 71.01,1017.2,N,  0.00, 90.00,297.38, 65.01, 61.39, 50.90, 31.34, 21.72,
    81,10/07/05 15:15:14,11,291.50, 71.10,1017.5,N,  0.00, 90.00,297.37, 64.96, 62.00, 51.12, 31.29, 21.12,
    82,10/07/05 15:16:14,11,291.58, 71.98,1017.8,N,  0.00, 90.00,297.39, 65.64, 62.45, 51.00, 31.53, 21.02,
    83,10/07/05 15:17:14,11,291.43, 73.03,1017.7,N,  0.00, 90.00,297.39, 65.86, 62.05, 51.20, 31.46, 21.08,
    84,10/07/05 15:18:14,11,291.39, 71.18,1017.4,N,  0.00, 90.00,297.40, 65.07, 61.49, 50.30, 31.30, 21.53,
    85,10/07/05 15:19:14,11,291.37, 71.44,1017.3,N,  0.00, 90.00,297.39, 64.59, 61.29, 50.77, 30.81, 21.73,
    86,10/07/05 15:20:14,11,291.49, 73.20,1017.2,N,  0.00, 90.00,297.38, 64.36, 61.48, 50.54, 30.97, 20.88,
    87,10/07/05 15:21:14,11,291.52, 72.79,1017.4,N,  0.00, 90.00,297.40, 64.56, 61.00, 49.74, 30.56, 20.59,
    88,10/07/05 15:22:14,11,291.51, 73.42,1017.1,N,  0.00, 90.00,297.40, 63.51, 59.99, 49.24, 29.77, 20.21,
    89,10/07/05 15:23:14,11,291.60, 70.98,1017.1,N,  0.00, 90.00,297.41, 63.86, 60.35, 49.36, 29.79, 20.35,
    90,10/07/05 15:24:14,11,291.53, 70.66,1017.3,N,  0.00, 90.00,297.42, 63.40, 60.27, 49.57, 30.08, 20.70,
    91,10/07/05 15:25:14,11,291.58, 72.19,1017.0,N,  0.00, 90.00,297.42, 63.86, 60.29, 49.14, 29.92, 20.19,
    92,10/07/05 15:26:14,11,291.46, 71.69,1017.3,N,  0.00, 90.00,297.43, 64.17, 60.21, 48.87, 29.99, 19.93,
    93,10/07/05 15:27:14,11,291.67, 71.97,1017.5,N,  0.00, 90.00,297.44, 63.99, 60.79, 49.63, 30.69, 20.49,
    94,10/07/05 15:28:14,11,291.39, 71.33,1017.3,N,  0.00, 90.00,297.46, 64.53, 61.09, 50.40, 31.12, 22.42,
    95,10/07/05 15:29:14,11,291.26, 71.94,1017.2,N,  0.00, 90.00,297.46, 64.72, 60.96, 49.98, 31.17, 21.49,
    96,10/07/05 15:30:14,11,291.46, 72.79,1017.2,N,  0.00, 90.00,297.47, 64.41, 61.36, 49.98, 31.13, 22.06,
    97,10/07/05 15:31:14,11,291.32, 73.27,1017.7,N,  0.00, 90.00,297.47, 64.88, 61.83, 50.99, 31.44, 23.15,
    98,10/07/05 15:32:14,11,291.24, 72.40,1017.0,N,  0.00, 90.00,297.47, 64.64, 61.13, 50.08, 31.40, 22.83,
    99,10/07/05 15:33:14,11,291.34, 73.15,1017.3,N,  0.00, 90.00,297.49, 64.89, 61.52, 51.22, 31.57, 22.93,
   100,10/07/05 15:34:14,11,291.31, 72.35,1017.3,N,  0.00, 90.00,297.48, 65.20, 62.15, 50.99, 32.51, 23.70,
   101,10/07/05 15:35:14,11,291.48, 73.93,1017.8,N,  0.00, 90.00,297.48, 65.10, 61.47, 50.93, 31.67, 22.03,
   102,10/07/05 15:36:14,11,291.44, 74.67,1017.2,N,  0.00, 90.00,297.48, 64.85, 61.66, 50.55, 31.93, 23.45,
   103,10/07/05 15:37:14,11,291.36, 74.67,1017.4,N,  0.00, 90.00,297.48, 65.58, 62.18, 51.07, 32.73, 22.99,
   104,10/07/05 15:38:14,11,291.39, 75.06,1017.5,N,  0.00, 90.00,297.46, 65.39, 62.62, 51.57, 32.04, 23.19,
   105,10/07/05 15:39:14,11,291.49, 75.53,1017.7,N,  0.00, 90.00,297.47, 65.77, 62.75, 52.31, 33.40, 25.03,
   106,10/07/05 15:40:14,11,291.33, 75.87,1017.3,N,  0.00, 90.00,297.45, 66.83, 63.74, 53.16, 34.46, 27.04,
   107,10/07/05 15:41:14,11,291.24, 75.52,1017.0,N,  0.00, 90.00,297.45, 65.91, 63.25, 52.47, 33.90, 25.30,
   108,10/07/05 15:42:14,11,291.30, 76.85,1017.3,N,  0.00, 90.00,297.46, 64.32, 61.54, 50.70, 31.68, 22.49,
   109,10/07/05 15:43:14,11,291.20, 75.89,1017.2,N,  0.00, 90.00,297.43, 64.66, 61.37, 50.49, 31.74, 23.34,
   110,10/07/05 15:44:14,11,291.29, 76.15,1017.3,N,  0.00, 90.00,297.43, 64.73, 61.74, 50.84, 32.30, 23.55,
   111,10/07/05 15:45:14,11,291.30, 73.62,1017.0,N,  0.00, 90.00,297.43, 63.46, 60.03, 49.50, 30.10, 21.27,
   112,10/07/05 15:46:14,11,291.37, 74.98,1017.6,N,  0.00, 90.00,297.43, 64.47, 60.87, 50.29, 31.76, 22.24,
   113,10/07/05 15:47:14,11,291.24, 74.36,1017.2,N,  0.00, 90.00,297.41, 63.68, 60.62, 50.46, 30.74, 21.92,
   114,10/07/05 15:48:14,11,291.37, 75.95,1017.2,N,  0.00, 90.00,297.41, 64.50, 61.27, 49.95, 31.89, 22.36,
   115,10/07/05 15:49:14,11,291.33, 76.03,1017.4,N,  0.00, 90.00,297.39, 64.73, 61.83, 51.21, 31.57, 23.49,
   116,10/07/05 15:50:14,11,291.26, 75.11,1017.5,N,  0.00, 90.00,297.40, 64.25, 61.77, 50.64, 32.20, 23.41,
   117,10/07/05 15:51:14,11,291.27, 73.89,1017.4,N,  0.00, 90.00,297.38, 64.20, 61.06, 50.39, 32.03, 23.51,
   118,10/07/05 15:52:14,11,291.39, 74.19,1017.1,N,  0.00, 90.00,297.39, 63.55, 60.38, 49.66, 31.02, 23.34,
   119,10/07/05 15:53:14,11,291.32, 74.22,1017.1,N,  0.00, 90.00,297.38, 63.12, 59.80, 49.67, 31.05, 22.31,
   120,10/07/05 15:54:14,11,291.33, 72.67,1017.4,N,  0.00, 90.00,297.36, 63.51, 60.04, 49.72, 30.99, 21.58,
   121,10/07/05 15:55:14,11,291.28, 73.06,1017.3,N,  0.00, 90.00,297.36, 63.20, 59.63, 49.29, 30.89, 22.30,
   122,10/07/05 15:56:14,11,291.44, 72.47,1017.2,N,  0.00, 90.00,297.35, 62.57, 59.45, 48.87, 30.74, 21.09,
   123,10/07/05 15:57:14,11,291.31, 73.57,1017.5,N,  0.00, 90.00,297.36, 63.12, 59.95, 48.59, 31.26, 21.81,
   124,10/07/05 15:58:14,11,291.48, 73.88,1017.4,N,  0.00, 90.00,297.35, 63.07, 60.10, 48.62, 30.85, 21.66,
   125,10/07/05 15:59:14,11,291.42, 74.07,1017.4,N,  0.00, 90.00,297.34, 63.42, 60.01, 49.59, 30.52, 21.70,
   126,10/07/05 16:00:14,11,291.38, 74.50,1017.3,N,  0.00, 90.00,297.33, 63.03, 59.91, 49.04, 30.79, 21.22,
   127,10/07/05 16:01:14,11,291.35, 72.89,1017.7,N,  0.00, 90.00,297.34, 63.13, 60.30, 49.38, 30.45, 21.36,
   128,10/07/05 16:02:14,11,291.41, 73.05,1017.0,N,  0.00, 90.00,297.32, 63.37, 59.80, 49.49, 31.12, 22.53,
   129,10/07/05 16:03:14,11,291.46, 71.88,1017.2,N,  0.00, 90.00,297.33, 63.10, 59.94, 49.12, 30.30, 21.62,
   130,10/07/05 16:04:14,11,291.40, 71.71,1017.2,N,  0.00, 90.00,297.33, 63.02, 60.14, 48.93, 30.63, 21.80,
   131,10/07/05 16:05:14,11,291.42, 73.04,1017.4,N,  0.00, 90.00,297.31, 63.67, 60.73, 49.87, 31.40, 22.52,
   132,10/07/05 16:06:14,11,291.46, 71.57,1016.8,N,  0.00, 90.00,297.32, 63.50, 60.10, 49.96, 30.99, 21.98,
   133,10/07/05 16:07:14,11,291.31, 72.12,1017.4,N,  0.00, 90.00,297.31, 63.18, 60.20, 49.36, 30.47, 21.39,
   134,10/07/05 16:08:14,11,291.39, 72.33,1017.6,N,  0.00, 90.00,297.29, 62.82, 59.76, 49.11, 30.65, 21.86,
   135,10/07/05 16:09:14,11,291.29, 72.48,1017.3,N,  0.00, 90.00,297.30, 63.08, 59.64, 49.43, 31.09, 22.71,
   136,10/07/05 16:10:14,11,291.42, 71.76,1017.5,N,  0.00, 90.00,297.31, 63.71, 60.27, 50.05, 31.62, 23.22,
   137,10/07/05 16:11:14,11,291.37, 71.60,1017.8,N,  0.00, 90.00,297.30, 64.08, 60.55, 50.66, 32.13, 24.80,
   138,10/07/05 16:12:14,11,291.38, 71.71,1017.7,N,  0.00, 90.00,297.29, 64.18, 61.21, 50.53, 32.53, 23.03,
   139,10/07/05 16:13:14,11,291.24, 71.66,1017.4,N,  0.00, 90.00,297.30, 64.87, 61.90, 51.29, 32.99, 24.54,
   140,10/07/05 16:14:14,11,291.27, 72.18,1017.5,N,  0.00, 90.00,297.29, 66.35, 63.83, 52.42, 34.92, 26.64,
   141,10/07/05 16:15:14,11,291.25, 74.34,1017.3,N,  0.00, 90.00,297.28, 65.77, 62.63, 52.55, 34.96, 27.21,
   142,10/07/05 16:16:14,11,291.28, 73.71,1017.6,N,  0.00, 90.00,297.28, 65.20, 61.71, 51.48, 32.98, 24.37,
   143,10/07/05 16:17:14,11,291.22, 73.59,1017.8,N,  0.00, 90.00,297.28, 65.68, 62.39, 52.45, 34.51, 25.51,
   144,10/07/05 16:18:14,11,291.16, 74.11,1017.7,N,  0.00, 90.00,297.27, 65.07, 61.74, 51.14, 33.02, 25.00,
   145,10/07/05 16:19:14,11,291.32, 74.89,1017.9,N,  0.00, 90.00,297.27, 66.32, 63.39, 53.24, 35.00, 27.88,
   146,10/07/05 16:20:14,11,291.14, 75.83,1017.5,N,  0.00, 90.00,297.26, 66.76, 64.16, 53.25, 35.14, 27.91,
   147,10/07/05 16:21:14,11,291.23, 76.62,1017.2,N,  0.00, 90.00,297.24, 66.43, 64.14, 53.55, 35.81, 28.97,
   148,10/07/05 16:22:14,11,291.08, 76.96,1017.6,N,  0.00, 90.00,297.23, 67.61, 64.49, 54.04, 36.20, 29.28,
   149,10/07/05 16:23:14,11,290.94, 75.98,1017.7,N,  0.00, 90.00,297.23, 66.49, 63.80, 53.23, 34.86, 27.44,
   150,10/07/05 16:24:14,11,290.92, 76.28,1017.8,N,  0.00, 90.00,297.22, 67.46, 64.36, 54.04, 36.10, 28.01,
   151,10/07/05 16:25:14,11,291.09, 75.58,1017.7,N,  0.00, 90.00,297.22, 67.59, 64.60, 54.06, 36.34, 27.47,
   152,10/07/05 16:26:14,11,291.13, 76.37,1017.7,N,  0.00, 90.00,297.20, 65.27, 62.61, 51.94, 34.14, 25.88,
   153,10/07/05 16:27:14,11,290.97, 74.29,1017.9,N,  0.00, 90.00,297.18, 65.98, 62.65, 52.56, 34.27, 25.30,
   154,10/07/05 16:28:14,11,291.08, 74.26,1017.5,N,  0.00, 90.00,297.18, 66.04, 62.87, 52.09, 34.08, 25.45,
   155,10/07/05 16:29:14,11,290.97, 75.54,1017.6,N,  0.00, 90.00,297.16, 67.36, 63.98, 53.67, 35.73, 28.30,
   156,10/07/05 16:30:14,11,291.06, 74.54,1017.4,N,  0.00, 90.00,297.14, 66.54, 63.50, 53.70, 35.49, 28.35,
   157,10/07/05 16:31:14,11,291.08, 73.58,1017.7,N,  0.00, 90.00,297.14, 65.94, 62.91, 52.78, 34.33, 27.02,
   158,10/07/05 16:32:14,11,291.01, 73.65,1017.4,N,  0.00, 90.00,297.12, 64.74, 62.25, 51.85, 33.75, 24.86,
   159,10/07/05 16:33:14,11,291.05, 72.60,1017.5,N,  0.00, 90.00,297.10, 65.31, 62.06, 51.68, 34.33, 27.01,
   160,10/07/05 16:34:14,11,291.07, 73.57,1017.4,N,  0.00, 90.00,297.09, 66.02, 63.05, 52.58, 34.66, 25.82,
   161,10/07/05 16:35:14,11,291.01, 74.14,1017.5,N,  0.00, 90.00,297.07, 66.72, 63.47, 53.57, 36.50, 28.46,
   162,10/07/05 16:36:14,11,291.07, 74.35,1017.7,N,  0.00, 90.00,297.06, 65.54, 61.70, 51.50, 33.79, 25.45,
   163,10/07/05 16:37:14,11,291.14, 73.95,1017.6,N,  0.00, 90.00,297.04, 65.81, 62.26, 51.97, 33.94, 25.60,
   164,10/07/05 16:38:14,11,291.04, 73.56,1017.4,N,  0.00, 90.00,297.03, 64.72, 61.49, 50.86, 32.70, 24.74,
   165,10/07/05 16:39:14,11,290.98, 73.78,1017.6,N,  0.00, 90.00,297.02, 64.79, 61.15, 51.28, 32.86, 24.14,
   166,10/07/05 16:40:14,11,291.20, 74.62,1017.7,N,  0.00, 90.00,297.00, 64.21, 61.26, 50.61, 32.65, 24.30,
   167,10/07/05 16:41:14,11,291.06, 73.61,1017.3,N,  0.00, 90.00,296.99, 63.43, 60.80, 50.44, 31.28, 23.13,
   168,10/07/05 16:42:14,11,291.13, 73.83,1017.5,N,  0.00, 90.00,296.98, 63.01, 60.83, 49.39, 31.26, 22.95,
   169,10/07/05 16:43:14,11,291.16, 74.71,1017.5,N,  0.00, 90.00,296.97, 62.89, 59.95, 49.48, 31.21, 22.37,
   170,10/07/05 16:44:14,11,291.09, 73.74,1017.4,N,  0.00, 90.00,296.98, 62.99, 59.70, 50.45, 31.46, 22.42,
   171,10/07/05 16:45:14,11,291.29, 73.18,1017.5,N,  0.00, 90.00,296.95, 63.14, 59.40, 49.24, 31.20, 22.45,
   172,10/07/05 16:46:14,11,291.20, 72.34,1017.7,N,  0.00, 90.00,296.95, 61.97, 59.79, 48.60, 30.74, 21.36,
   173,10/07/05 16:47:14,11,291.30, 71.92,1017.1,N,  0.00, 90.00,296.94, 62.25, 59.24, 49.25, 30.59, 22.45,
   174,10/07/05 16:48:14,11,291.29, 71.80,1017.5,N,  0.00, 90.00,296.94, 62.28, 59.17, 49.14, 30.94, 22.29,
   175,10/07/05 16:49:14,11,291.31, 71.87,1017.5,N,  0.00, 90.00,296.94, 63.28, 59.88, 49.64, 31.71, 23.19,
   176,10/07/05 16:50:14,11,291.24, 72.78,1017.8,N,  0.00, 90.00,296.94, 63.27, 60.34, 50.43, 32.29, 23.12,
   177,10/07/05 16:51:14,11,291.27, 71.38,1017.2,N,  0.00, 90.00,296.93, 63.52, 60.15, 49.77, 32.66, 24.53,
   178,10/07/05 16:52:14,11,291.24, 72.53,1017.4,N,  0.00, 90.00,296.93, 63.06, 59.94, 49.24, 31.63, 23.69,
   179,10/07/05 16:53:14,11,291.12, 72.92,1017.6,N,  0.00, 90.00,296.94, 62.81, 59.63, 49.78, 31.49, 23.82,
   180,10/07/05 16:54:14,11,291.22, 73.41,1017.7,N,  0.00, 90.00,296.92, 62.83, 59.39, 49.57, 31.99, 23.93,
   181,10/07/05 16:55:14,11,291.36, 73.48,1017.4,N,  0.00, 90.00,296.94, 62.58, 59.15, 49.17, 30.73, 23.08,
   182,10/07/05 16:56:14,11,291.27, 73.41,1017.5,N,  0.00, 90.00,296.94, 63.08, 59.44, 49.58, 31.79, 23.26,
   183,10/07/05 16:57:14,11,291.10, 73.41,1017.5,N,  0.00, 90.00,296.92, 61.92, 59.05, 49.15, 31.12, 22.92,
   184,10/07/05 16:58:14,11,291.20, 73.67,1017.7,N,  0.00, 90.00,296.92, 62.12, 59.44, 49.15, 31.52, 24.08,
   185,10/07/05 16:59:14,11,291.01, 73.47,1017.4,N,  0.00, 90.00,296.93, 62.66, 59.39, 49.61, 31.93, 24.79,
   186,10/07/05 17:00:14,11,291.16, 74.93,1017.6,N,  0.00, 90.00,296.93, 62.88, 59.93, 49.08, 32.45, 24.25,
   187,10/07/05 17:01:14,11,291.12, 75.11,1017.4,N,  0.00, 90.00,296.92, 61.85, 58.99, 48.99, 31.28, 22.46,
   188,10/07/05 17:02:14,11,291.22, 73.61,1017.8,N,  0.00, 90.00,296.94, 61.90, 58.51, 48.42, 31.36, 23.19,
   189,10/07/05 17:03:14,11,291.13, 74.19,1016.9,N,  0.00, 90.00,296.91, 61.30, 58.28, 48.13, 30.01, 20.58,
   190,10/07/05 17:04:14,11,291.12, 73.37,1017.3,N,  0.00, 90.00,296.92, 61.36, 58.56, 48.17, 30.58, 22.31,
   191,10/07/05 17:05:14,11,291.07, 73.36,1017.4,N,  0.00, 90.00,296.93, 63.51, 59.81, 50.45, 33.28, 25.92,
   192,10/07/05 17:06:14,11,291.05, 74.82,1017.3,N,  0.00, 90.00,296.91, 63.01, 60.39, 50.35, 33.72, 25.83,
   193,10/07/05 17:07:14,11,291.06, 75.69,1017.5,N,  0.00, 90.00,296.91, 63.44, 60.93, 51.07, 34.35, 28.06,
   194,10/07/05 17:08:14,11,290.84, 74.74,1017.5,N,  0.00, 90.00,296.90, 63.41, 60.68, 51.25, 33.94, 27.00,
   195,10/07/05 17:09:14,11,290.97, 74.84,1017.5,N,  0.00, 90.00,296.91, 63.09, 60.24, 50.13, 33.52, 25.15,
   196,10/07/05 17:10:14,11,290.98, 75.67,1017.6,N,  0.00, 90.00,296.90, 63.23, 60.54, 50.36, 33.58, 26.52,
   197,10/07/05 17:11:14,11,291.05, 76.47,1017.2,N,  0.00, 90.00,296.89, 62.51, 59.50, 49.49, 32.57, 24.73,
   198,10/07/05 17:12:14,11,290.93, 75.33,1017.4,N,  0.00, 90.00,296.88, 61.20, 58.41, 48.43, 31.15, 22.43,
   199,10/07/05 17:13:14,11,290.99, 75.05,1017.3,N,  0.00, 90.00,296.87, 62.14, 59.12, 49.21, 32.35, 24.27,
   200,10/07/05 17:14:14,11,290.88, 74.11,1017.1,N,  0.00, 90.00,296.86, 61.59, 58.01, 47.42, 30.99, 21.44,
   201,10/07/05 17:15:14,11,291.03, 74.99,1017.6,N,  0.00, 90.00,296.86, 60.62, 57.79, 47.67, 30.83, 22.82,
   202,10/07/05 17:16:14,11,291.01, 74.61,1017.4,N,  0.00, 90.00,296.86, 61.14, 57.91, 47.73, 29.69, 21.04,
   203,10/07/05 17:17:14,11,290.95, 74.68,1016.8,N,  0.00, 90.00,296.86, 60.38, 56.55, 47.41, 30.18, 21.35,
   204,10/07/05 17:18:14,11,291.25, 74.57,1017.0,N,  0.00, 90.00,296.86, 60.71, 56.53, 46.55, 29.37, 20.27,
   205,10/07/05 17:19:14,11,291.15, 73.76,1017.1,N,  0.00, 90.00,296.84, 59.55, 56.99, 46.97, 29.41, 20.29,
   206,10/07/05 17:20:14,11,291.25, 75.00,1017.2,N,  0.00, 90.00,296.85, 59.90, 56.70, 47.44, 30.40, 20.88,
   207,10/07/05 17:21:14,11,291.05, 75.59,1017.0,N,  0.00, 90.00,296.85, 60.40, 57.48, 48.09, 30.95, 23.65,
   208,10/07/05 17:22:14,11,291.08, 75.87,1017.4,N,  0.00, 90.00,296.86, 60.82, 58.15, 48.13, 31.31, 22.95,
   209,10/07/05 17:23:14,11,290.96, 76.53,1017.1,N,  0.00, 90.00,296.86, 61.26, 57.92, 47.83, 30.71, 23.04,
   210,10/07/05 17:24:14,11,290.88, 76.33,1017.6,N,  0.00, 90.00,296.86, 59.54, 57.35, 47.38, 30.41, 23.41,
   211,10/07/05 17:25:14,11,290.99, 75.53,1017.3,N,  0.00, 90.00,296.85, 59.47, 56.63, 46.97, 29.49, 21.14,
   212,10/07/05 17:26:14,11,290.84, 74.40,1017.2,N,  0.00, 90.00,296.83, 64.49, 60.85, 50.11, 31.39, 23.71,
   213,10/07/05 17:27:14,11,291.00, 74.53,1017.3,N,  0.00, 90.00,296.84, 66.45, 66.24, 57.38, 37.83, 27.12,
   214,10/07/05 17:28:14,11,290.98, 75.42,1017.2,N,  0.00, 90.00,296.83, 74.40, 65.69, 49.27, 31.45, 23.33,
   215,10/07/05 17:29:14,11,291.07, 75.83,1017.4,N,  0.00, 90.00,296.83, 60.58, 59.68, 54.67, 37.47, 26.36,
   216,10/07/05 17:30:14,11,291.00, 74.28,1016.8,N,  0.00, 90.00,296.82, 76.64, 70.46, 54.36, 32.76, 24.09,
   217,10/07/05 17:31:14,11,290.85, 74.40,1017.2,N,  0.00, 90.00,296.82, 61.85, 64.27, 64.51, 44.99, 25.80,
   218,10/07/05 17:32:14,11,291.03, 73.92,1017.6,N,  0.00, 90.00,296.81, 59.14, 56.41, 51.46, 61.44, 67.25,
   219,10/07/05 17:33:14,11,291.03, 73.73,1017.2,N,  0.00, 90.00,296.81, 75.19, 67.77, 52.15, 31.17, 21.88,